Location: Fontevrault
(47.1823°N, 0.0493°E)
Time: 03:55:04
(UTC+00:00)

Uosat 12 SS-18 rocket - Pass Details

Date: 25 October 2021
Orbit: 579 x 1405 km, 64.6° (Epoch: 01 December)

Event Time Altitude Azimuth Distance (km) Brightness Sun altitude
Rises 19:17:14 0° 297° (WNW) 3,434 9.0 -24.9°
Reaches altitude 10° 19:20:28 10° 317° (NW) 2,653 7.9 -25.4°
Maximum altitude 19:24:37 18° 359° (N) 2,323 7.1 -26.1°
Enters shadow 19:27:53 13° 30° (NNE) 2,745 7.1 -26.6°
